Location: Seddon's Corner
(50.0622°N, 96.2921°W)
Time: 03:08:41
(UTC-05:00)

Envisat - Visible Passes

Search period start: 16 October 2019 00:00
Search period end: 26 October 2019 00:00
Orbit: 764 x 766 km, 98.1° (Epoch: 15 October)

Date Brightness Start Highest point End Pass type
(mag) Time Alt. Az. Time Alt. Az. Time Alt. Az.
16 Oct 6.2 07:04:44 10° NE 07:07:44 16° E 07:10:43 10° ESE visible
16 Oct 4.4 20:01:51 10° SSW 20:06:38 41° W 20:11:27 10° NNW visible
17 Oct 3.1 19:24:39 10° SSE 19:29:45 82° WSW 19:34:52 10° NNW visible
17 Oct 6.1 21:07:22 10° WSW 21:09:35 13° W 21:11:48 10° WNW visible
18 Oct 5.3 20:28:10 10° SSW 20:32:21 26° W 20:36:33 10° NW visible
19 Oct 6.4 06:54:11 10° ENE 06:56:18 12° E 06:58:26 10° ESE visible
19 Oct 4.0 19:50:23 10° S 19:55:19 50° W 20:00:17 10° NNW visible
20 Oct 3.0 19:13:23 10° SSE 19:18:28 82° ENE 19:23:35 10° NNW visible
20 Oct 5.9 20:55:07 10° SW 20:58:10 16° W 21:01:13 10° NW visible
21 Oct 6.0 07:18:23 10° NE 07:22:10 21° E 07:25:56 10° SE visible
21 Oct 4.9 20:16:30 10° SSW 20:20:59 31° W 20:25:30 10° NNW visible
22 Oct 3.5 19:38:59 10° S 19:44:00 62° WSW 19:49:04 10° NNW visible
23 Oct 3.0 19:02:12 10° SSE 19:07:14 68° ENE 19:12:18 10° N visible
23 Oct 5.7 20:43:08 10° SW 20:46:45 19° W 20:50:24 10° NW visible
24 Oct 6.1 07:07:31 10° NE 07:10:46 17° E 07:14:00 10° SE visible
24 Oct 4.5 20:04:56 10° SSW 20:09:38 38° W 20:14:23 10° NNW visible
25 Oct 3.2 19:27:38 10° S 19:32:43 76° WSW 19:37:50 10° NNW visible
25 Oct 6.2 21:10:53 10° WSW 21:12:38 12° W 21:14:23 10° WNW visible
